Location: Northcutt
(34.7304°N, 84.4305°W)
Time: 11:42:33
(UTC+00:00)

Transit 4A - All Passes

Search period start: 05 October 2022 00:00
Search period end: 15 October 2022 00:00
Orbit: 870 x 974 km, 66.8° (Epoch: 04 October)

Date Brightness Start Highest point End Pass type
(mag) Time Alt. Az. Time Alt. Az. Time Alt. Az.
05 Oct - 01:58:16 10° S 02:03:52 36° ESE 02:09:22 10° NE night (unlit)
05 Oct - 03:44:38 10° WSW 03:50:10 33° NW 03:55:37 10° N night (unlit)
05 Oct - 11:05:00 10° N 11:09:21 21° NE 11:13:40 10° E visible
05 Oct - 12:50:21 10° NW 12:56:01 54° WSW 13:01:38 10° S daylight
06 Oct - 02:06:56 10° S 02:12:59 55° ESE 02:18:56 10° NE night (unlit)
06 Oct - 03:54:52 10° WSW 03:59:38 23° NW 04:04:21 10° N night (unlit)
06 Oct - 11:13:42 10° N 11:18:50 31° NE 11:23:56 10° ESE visible
06 Oct - 12:59:56 10° NW 13:05:06 34° WSW 13:10:16 10° S daylight
07 Oct - 02:15:56 10° SSW 02:22:11 85° ESE 02:28:17 10° NNE night (unlit)
07 Oct - 04:05:38 10° W 04:09:12 16° NW 04:12:45 10° NNW night (unlit)
07 Oct - 11:22:36 10° NNW 11:28:13 47° ENE 11:33:47 10° SE daylight
07 Oct - 13:09:51 10° WNW 13:14:08 22° WSW 13:18:25 10° SSW daylight
08 Oct - 00:41:51 10° SE 00:45:39 17° ESE 00:49:25 10° ENE visible
08 Oct - 02:25:15 10° SW 02:31:25 65° WNW 02:37:28 10° NNE visible
08 Oct - 04:17:48 10° NW 04:18:54 10° NW 04:19:59 10° NNW night (unlit)
08 Oct - 09:48:38 10° NNE 09:50:09 11° NE 09:51:40 10° ENE visible
08 Oct - 11:31:41 10° NNW 11:37:31 73° ENE 11:43:18 10° SSE daylight
08 Oct - 13:20:34 10° WNW 13:23:06 13° WSW 13:25:39 10° SW daylight
09 Oct - 00:49:35 10° SSE 00:54:40 27° ESE 00:59:40 10° NE visible
09 Oct - 02:34:53 10° SW 02:40:45 43° WNW 02:46:30 10° NNE visible
09 Oct - 09:56:13 10° N 09:59:49 16° NE 10:03:23 10° E visible
09 Oct - 11:40:55 10° NNW 11:46:44 74° WSW 11:52:30 10° SSE daylight
10 Oct - 00:57:58 10° S 01:03:45 41° ESE 01:09:24 10° NE visible
10 Oct - 02:44:52 10° WSW 02:50:09 29° NW 02:55:22 10° N visible
10 Oct - 10:04:42 10° N 10:09:22 24° NE 10:13:59 10° ESE visible
10 Oct - 11:50:21 10° NW 11:55:52 46° WSW 12:01:23 10° S daylight
11 Oct - 01:06:45 10° SSW 01:12:53 64° ESE 01:18:54 10° NNE visible
11 Oct - 02:55:15 10° W 02:59:40 20° NW 03:04:00 10° N visible
11 Oct - 10:13:28 10° N 10:18:48 36° ENE 10:24:05 10° ESE visible
11 Oct - 12:00:01 10° NW 12:04:56 29° WSW 12:09:52 10° SSW daylight
11 Oct - 23:34:20 10° ESE 23:36:31 12° ESE 23:38:42 10° E visible
12 Oct - 01:15:52 10° SSW 01:22:06 84° WNW 01:28:11 10° NNE visible
12 Oct - 03:06:18 10° WNW 03:09:16 14° NW 03:12:13 10° NNW visible
12 Oct - 10:22:27 10° NNW 10:28:08 54° ENE 10:33:49 10° SE visible
12 Oct - 12:10:07 10° WNW 12:13:57 18° WSW 12:17:48 10° SSW daylight
12 Oct - 23:41:10 10° SSE 23:45:30 20° ESE 23:49:45 10° ENE visible
13 Oct - 01:25:17 10° SW 01:31:22 56° WNW 01:37:18 10° NNE visible
13 Oct - 08:47:45 10° NNE 08:50:13 13° NE 08:52:40 10° ENE visible
13 Oct - 10:31:34 10° NNW 10:37:25 84° ENE 10:43:14 10° SSE visible
13 Oct - 12:21:41 10° W 12:22:54 11° WSW 12:24:07 10° WSW daylight
13 Oct - 23:49:10 10° SSE 23:54:32 31° ESE 23:59:47 10° NE visible
14 Oct - 01:35:01 10° SW 01:40:42 37° WNW 01:46:17 10° N visible
14 Oct - 08:55:49 10° N 08:59:50 19° NE 09:03:49 10° E visible
14 Oct - 10:40:52 10° NNW 10:46:36 63° WSW 10:52:20 10° SSE visible
